When you browse on this site, cookies collect data to enhance your experience and personalize the content and advertising you see.
Visit our Privacy Policy to learn more. By continuing to use the site, you agree to this use of cookies and data.
  • In United Kingdom
  • List of Countries
  • For 7 days
  • Water Temperature
  • Weather Map
  • Weather Widgets
  • user-avatar
    Login

    Hourly Weather Budapest

    Today, 30 March, Monday

    Time Temperature Precipitation Wind Pressure Humidity
    00:00 +7°C° 0 mm 4 mps 751 mmHg 70%
    01:00 +5°C° 0 mm 6 mps 752 mmHg 69%
    02:00 +5°C° 0 mm 6 mps 752 mmHg 69%
    03:00 +4°C° 0 mm 6 mps 752 mmHg 69%
    04:00 +5°C° 0 mm 5 mps 752 mmHg 69%
    05:00 +4°C° 0 mm 6 mps 753 mmHg 67%
    06:00 +3°C° 0 mm 6 mps 753 mmHg 65%
    07:00 +2°C° 0 mm 6 mps 754 mmHg 64%
    08:00 +3°C° 0 mm 6 mps 754 mmHg 61%
    09:00 +5°C° 0 mm 5 mps 755 mmHg 59%
    10:00 +5°C° 0 mm 5 mps 755 mmHg 56%
    11:00 +5°C° 0 mm 5 mps 755 mmHg 57%
    12:00 +6°C° 0 mm 4 mps 755 mmHg 57%
    13:00 +6°C° 0 mm 4 mps 755 mmHg 58%
    14:00 +6°C° 0 mm 4 mps 755 mmHg 57%
    15:00 +6°C° 0 mm 4 mps 755 mmHg 56%
    16:00 +6°C° 0 mm 4 mps 755 mmHg 55%
    17:00 +5°C° 0.1 mm 4 mps 756 mmHg 56%
    18:00 +4°C° 0.1 mm 4 mps 756 mmHg 58%
    19:00 +3°C° 0.1 mm 4 mps 756 mmHg 59%
    20:00 +3°C° 0 mm 4 mps 757 mmHg 59%
    21:00 +2°C° 0 mm 3 mps 757 mmHg 60%
    22:00 +1°C° 0 mm 3 mps 758 mmHg 60%
    23:00 +1°C° 0 mm 3 mps 758 mmHg 59%

    Tomorrow, 31 March, Tuesday

    Time Temperature Precipitation Wind Pressure Humidity
    00:00 +2°C° 0 mm 2 mps 758 mmHg 57%
    01:00 +2°C° 0 mm 1 mps 759 mmHg 56%
    02:00 +2°C° 0 mm 1 mps 759 mmHg 59%
    03:00 -1°C° 0 mm 2 mps 759 mmHg 62%
    04:00 -1°C° 0 mm 2 mps 759 mmHg 65%
    05:00 +1°C° 0 mm 2 mps 759 mmHg 63%
    06:00 +1°C° 0 mm 2 mps 759 mmHg 60%
    07:00 +2°C° 0 mm 2 mps 759 mmHg 58%
    08:00 +3°C° 0 mm 2 mps 759 mmHg 50%
    09:00 +4°C° 0 mm 2 mps 759 mmHg 42%
    10:00 +6°C° 0 mm 2 mps 759 mmHg 34%
    11:00 +6°C° 0 mm 2 mps 759 mmHg 32%
    12:00 +7°C° 0 mm 2 mps 759 mmHg 30%
    13:00 +7°C° 0 mm 2 mps 758 mmHg 28%
    14:00 +8°C° 0 mm 2 mps 758 mmHg 28%
    15:00 +8°C° 0 mm 2 mps 758 mmHg 28%
    16:00 +8°C° 0 mm 2 mps 758 mmHg 28%
    17:00 +6°C° 0 mm 2 mps 758 mmHg 33%
    18:00 +5°C° 0 mm 2 mps 758 mmHg 37%
    19:00 +4°C° 0 mm 2 mps 758 mmHg 42%
    20:00 +4°C° 0 mm 2 mps 759 mmHg 43%
    21:00 +3°C° 0 mm 2 mps 759 mmHg 45%
    22:00 +3°C° 0 mm 2 mps 759 mmHg 47%
    23:00 +2°C° 0 mm 2 mps 759 mmHg 49%

    Day after tomorrow, 1 April, Wednesday

    Time Temperature Precipitation Wind Pressure Humidity
    00:00 +2°C° 0 mm 2 mps 759 mmHg 51%
    01:00 +1°C° 0 mm 2 mps 759 mmHg 53%
    02:00 +1°C° 0 mm 2 mps 759 mmHg 52%
    03:00 -1°C° 0 mm 2 mps 759 mmHg 52%
    04:00 +1°C° 0 mm 1 mps 759 mmHg 52%
    05:00 +2°C° 0 mm 1 mps 759 mmHg 49%
    06:00 +2°C° 0 mm 1 mps 759 mmHg 46%
    07:00 +3°C° 0 mm 1 mps 759 mmHg 43%
    08:00 +4°C° 0 mm 2 mps 759 mmHg 38%
    09:00 +5°C° 0 mm 2 mps 759 mmHg 33%
    10:00 +7°C° 0 mm 2 mps 758 mmHg 28%
    11:00 +7°C° 0 mm 2 mps 758 mmHg 26%
    12:00 +8°C° 0 mm 2 mps 758 mmHg 24%
    13:00 +9°C° 0 mm 2 mps 758 mmHg 22%
    14:00 +10°C° 0 mm 1 mps 757 mmHg 22%
    15:00 +10°C° 0 mm 1 mps 756 mmHg 22%
    16:00 +10°C° 0 mm 1 mps 756 mmHg 22%
    17:00 +8°C° 0 mm 1 mps 756 mmHg 26%
    18:00 +7°C° 0 mm 1 mps 756 mmHg 29%
    19:00 +6°C° 0 mm 1 mps 756 mmHg 32%
    20:00 +5°C° 0 mm 1 mps 756 mmHg 34%
    21:00 +4°C° 0 mm 2 mps 756 mmHg 35%
    22:00 +3°C° 0 mm 2 mps 756 mmHg 37%
    23:00 +3°C° 0 mm 2 mps 756 mmHg 38%

    2 April, Thursday

    Time Temperature Precipitation Wind Pressure Humidity
    00:00 +2°C° 0 mm 2 mps 755 mmHg 40%
    01:00 +2°C° 0 mm 2 mps 755 mmHg 41%
    02:00 +1°C° 0 mm 2 mps 755 mmHg 42%
    03:00 +2°C° 0 mm 1 mps 755 mmHg 43%
    04:00 +2°C° 0 mm 1 mps 754 mmHg 44%
    05:00 +2°C° 0 mm 1 mps 755 mmHg 43%
    06:00 +2°C° 0 mm 2 mps 755 mmHg 42%
    07:00 +3°C° 0 mm 2 mps 755 mmHg 42%
    08:00 +5°C° 0 mm 2 mps 754 mmHg 38%
    09:00 +5°C° 0 mm 3 mps 754 mmHg 34%
    10:00 +8°C° 0 mm 3 mps 754 mmHg 30%
    11:00 +9°C° 0 mm 3 mps 754 mmHg 30%
    12:00 +10°C° 0 mm 3 mps 753 mmHg 30%
    13:00 +11°C° 0 mm 3 mps 753 mmHg 29%
    14:00 +11°C° 0 mm 3 mps 753 mmHg 31%
    15:00 +11°C° 0 mm 3 mps 752 mmHg 32%
    16:00 +11°C° 0 mm 3 mps 751 mmHg 33%
    17:00 +10°C° 0 mm 2 mps 751 mmHg 37%
    18:00 +8°C° 0 mm 2 mps 751 mmHg 42%
    19:00 +7°C° 0 mm 2 mps 751 mmHg 46%
    20:00 +6°C° 0 mm 2 mps 751 mmHg 49%
    21:00 +6°C° 0 mm 2 mps 751 mmHg 52%
    22:00 +5°C° 0 mm 2 mps 751 mmHg 55%
    23:00 +5°C° 0 mm 2 mps 751 mmHg 59%

    3 April, Friday

    Time Temperature Precipitation Wind Pressure Humidity
    00:00 +4°C° 0 mm 2 mps 751 mmHg 62%
    01:00 +4°C° 0 mm 2 mps 751 mmHg 65%
    02:00 +4°C° 0 mm 2 mps 750 mmHg 66%
    03:00 +3°C° 0 mm 2 mps 750 mmHg 68%
    04:00 +3°C° 0 mm 2 mps 750 mmHg 70%
    05:00 +4°C° 0 mm 2 mps 750 mmHg 69%
    06:00 +4°C° 0 mm 2 mps 751 mmHg 67%
    07:00 +5°C° 0 mm 2 mps 751 mmHg 66%
    08:00 +7°C° 0 mm 3 mps 751 mmHg 60%
    09:00 +9°C° 0 mm 3 mps 751 mmHg 55%
    10:00 +11°C° 0 mm 4 mps 751 mmHg 49%
    11:00 +12°C° 0 mm 4 mps 751 mmHg 47%
    12:00 +13°C° 0 mm 5 mps 751 mmHg 44%
    13:00 +14°C° 0 mm 6 mps 751 mmHg 42%
    14:00 +13°C° 0 mm 6 mps 751 mmHg 43%
    15:00 +13°C° 0 mm 6 mps 751 mmHg 44%
    16:00 +13°C° 0 mm 6 mps 751 mmHg 45%
    17:00 +10°C° 0 mm 5 mps 752 mmHg 51%
    18:00 +9°C° 0 mm 5 mps 752 mmHg 57%
    19:00 +8°C° 0 mm 4 mps 753 mmHg 63%
    20:00 +7°C° 0 mm 4 mps 754 mmHg 64%
    21:00 +6°C° 0 mm 4 mps 755 mmHg 65%
    22:00 +6°C° 0 mm 4 mps 756 mmHg 66%
    23:00 +5°C° 0 mm 4 mps 756 mmHg 65%

    4 April, Saturday

    Time Temperature Precipitation Wind Pressure Humidity
    00:00 +5°C° 0 mm 4 mps 757 mmHg 63%
    01:00 +4°C° 0 mm 3 mps 758 mmHg 62%
    02:00 +3°C° 0 mm 3 mps 758 mmHg 63%
    03:00 +3°C° 0 mm 4 mps 759 mmHg 65%
    04:00 +1°C° 0 mm 4 mps 759 mmHg 67%
    05:00 +3°C° 0 mm 4 mps 760 mmHg 64%
    06:00 +3°C° 0 mm 4 mps 761 mmHg 62%
    07:00 +4°C° 0 mm 4 mps 762 mmHg 59%
    08:00 +5°C° 0 mm 3 mps 762 mmHg 50%
    09:00 +8°C° 0 mm 3 mps 762 mmHg 41%
    10:00 +9°C° 0 mm 2 mps 762 mmHg 31%
    11:00 +10°C° 0 mm 2 mps 763 mmHg 28%
    12:00 +12°C° 0 mm 2 mps 763 mmHg 25%
    13:00 +12°C° 0 mm 2 mps 763 mmHg 23%
    14:00 +12°C° 0 mm 2 mps 763 mmHg 23%
    15:00 +13°C° 0 mm 2 mps 762 mmHg 24%
    16:00 +13°C° 0 mm 2 mps 762 mmHg 25%
    17:00 +10°C° 0 mm 2 mps 763 mmHg 29%
    18:00 +9°C° 0 mm 2 mps 763 mmHg 33%
    19:00 +8°C° 0 mm 1 mps 763 mmHg 38%
    20:00 +8°C° 0 mm 1 mps 764 mmHg 39%
    21:00 +7°C° 0 mm 1 mps 764 mmHg 41%
    22:00 +7°C° 0 mm 1 mps 765 mmHg 43%
    23:00 +6°C° 0 mm 1 mps 765 mmHg 45%
    Show more